Wind_Speed
44 49 53 49 46 39 36 32 33 29 22 20 17 12 7 8 9 7 10 10 9 8 10 14 16 14 18 25 24 23 23 20 18 16 13 11 11 8 9 11 12 13 16 17
48 53 49 47 49 44 37 36 37 35 27 22 19 16 11 8 6 4 10 11 8 6 12 17 17 13 23 25 24 22 20 17 15 13 13 10 10 9 9 9 9 9 11 13
46 44 45 45 47 50 45 46 43 40 33 27 21 20 15 11 11 3 6 9 12 9 14 18 17 24 24 21 22 22 19 16 14 12 11 9 9 8 8 8 6 6 7 8
40 39 40 41 46 50 50 53 47 42 36 32 26 22 19 17 16 6 6 12 15 16 16 22 23 24 23 23 22 21 18 15 11 9 7 6 5 5 5 5 5 6 6 7
42 36 34 33 39 42 52 47 47 41 38 33 31 30 24 21 20 12 11 14 19 18 14 20 27 26 25 25 25 23 21 18 14 11 10 8 5 3 2 1 1 3 6 8
41 40 31 37 33 36 43 46 48 45 41 35 43 39 31 29 23 22 18 18 19 18 15 17 25 26 25 25 26 25 21 18 15 12 11 11 10 8 6 5 5 4 5 8
46 45 39 36 34 32 32 40 43 43 44 50 52 41 43 34 27 24 21 20 18 16 16 18 22 28 27 26 24 22 22 20 18 15 14 15 14 13 10 10 10 10 10 11
53 50 48 40 39 34 29 26 29 41 50 56 47 48 43 40 30 26 24 23 21 17 18 20 21 24 26 28 27 25 24 22 20 19 17 17 16 15 14 12 14 13 12 13
55 51 52 48 46 37 31 24 31 30 40 47 51 54 48 43 37 31 29 25 27 26 22 22 25 24 26 27 25 24 24 24 22 21 20 17 16 17 16 16 16 16 18 18
58 56 56 57 55 45 37 33 21 20 22 34 50 57 56 49 45 39 33 30 29 28 27 24 26 27 28 29 27 25 25 24 24 24 22 20 17 17 19 20 20 20 21 24
64 59 60 58 49 47 44 39 32 30 24 23 27 45 55 53 48 44 42 38 35 31 30 30 28 26 28 29 30 29 29 29 28 27 27 25 24 23 23 24 25 25 26 26
71 65 61 60 57 55 51 47 38 34 32 31 33 36 45 51 51 49 46 41 39 35 35 33 33 30 28 30 33 34 34 35 33 33 32 31 32 31 32 32 31 30 30 29
78 72 70 66 61 56 51 47 40 41 40 32 30 31 28 24 34 51 52 50 46 43 42 40 38 36 35 35 36 38 40 41 39 40 38 37 37 39 39 38 37 35 34 34
81 78 75 71 67 63 55 50 46 42 36 35 31 36 35 30 27 31 47 54 53 52 50 47 44 42 41 40 41 42 42 44 44 44 42 42 41 37 35 36 36 37 38 38
87 82 76 73 74 67 60 56 51 46 40 32 39 40 39 36 33 26 28 40 51 55 55 53 51 49 47 47 47 47 48 47 44 43 44 45 41 41 40 39 39 40 43 43
93 88 81 75 76 72 66 60 55 53 45 41 41 43 42 42 36 31 30 27 25 35 52 57 56 55 55 55 55 55 54 54 52 50 51 50 49 48 49 48 48 48 49 50
100 94 88 81 77 76 71 63 61 60 54 47 43 45 48 45 39 37 31 29 26 28 29 29 39 53 59 60 60 58 59 59 58 57 56 57 56 57 57 55 55 57 56 56
103 101 96 90 83 79 70 72 68 65 60 53 50 48 47 48 45 40 37 33 33 34 30 29 30 31 33 37 46 52 54 58 61 64 63 63 63 64 61 61 61 62 61 62
104 105 102 99 91 80 78 76 73 69 65 60 56 56 52 52 53 48 43 40 40 38 37 37 36 37 36 37 39 40 43 48 52 59 64 66 66 69 68 68 70 69 67 69
106 105 105 102 97 87 82 83 78 72 65 63 62 62 59 56 51 51 49 47 44 44 43 41 39 38 40 37 36 39 43 46 50 53 55 54 56 59 59 62 66 68 70 72
99 104 102 103 99 92 89 86 82 78 70 70 65 66 64 59 58 61 59 53 51 48 47 46 44 44 44 40 37 41 40 40 42 44 48 52 54 55 55 56 56 56 61 63
94 95 98 103 99 92 89 92 87 82 80 77 74 71 67 68 69 67 64 60 55 52 53 52 50 48 47 45 43 42 44 45 44 44 44 47 53 57 56 55 56 53 52 60
94 89 94 96 94 95 96 91 93 93 88 84 80 77 72 69 71 72 69 64 59 55 54 53 53 54 53 50 50 48 48 48 48 47 47 47 49 53 56 57 52 53 57 58
97 99 88 88 88 94 94 95 93 91 89 87 83 82 77 74 73 72 72 69 67 64 61 59 59 58 57 56 54 53 54 53 52 53 51 52 51 51 52 54 47 44 37 59
106 100 97 87 84 91 94 96 96 93 88 86 84 80 78 80 79 76 76 73 71 70 68 66 64 64 65 64 63 61 61 60 60 58 56 55 57 57 56 58 56 45 54 66
100 109 104 94 97 89 92 100 97 96 94 90 86 80 79 78 79 78 77 78 78 76 75 74 73 71 71 70 69 69 69 68 67 64 63 61 61 61 59 58 56 53 54 54
Wind_Direction
253 250 243 245 246 246 245 247 250 250 250 250 247 252 267 294 311 292 239 222 245 275 246 198 191 179 203 186 178 171 160 156 146 138 131 118 99 97 94 89 87 80 72 63
250 249 250 248 247 245 241 242 241 247 246 246 250 252 252 270 276 299 264 239 216 215 211 173 165 177 190 182 178 174 165 160 151 137 140 129 115 106 98 91 85 72 62 54
252 252 249 245 241 240 231 231 232 236 241 244 248 249 244 248 249 236 252 218 178 200 184 155 155 174 180 181 180 176 174 169 161 148 148 141 127 116 104 96 78 47 40 42
252 246 245 244 241 238 234 231 230 231 238 240 246 248 246 240 245 236 236 206 170 166 165 148 161 175 182 183 185 184 185 185 171 162 154 156 144 137 114 98 77 37 22 36
243 248 248 247 243 240 239 238 232 233 234 241 239 243 240 234 236 228 206 201 173 162 180 164 174 184 191 192 191 191 196 195 194 192 189 186 191 188 176 194 107 49 18 14
238 243 237 239 238 237 238 235 230 226 227 230 236 234 234 232 227 229 204 202 189 176 189 186 187 194 200 206 202 198 200 205 209 216 220 218 219 222 246 280 310 329 353 354
230 231 226 236 237 235 233 233 231 226 222 225 229 229 231 232 226 226 219 199 212 201 197 203 196 198 205 212 206 207 207 213 223 234 237 241 244 250 260 283 294 309 325 330
228 232 227 227 233 230 228 234 228 222 222 224 227 233 231 232 226 225 221 211 205 208 210 201 206 206 211 213 207 208 215 218 223 231 239 250 251 254 261 268 284 292 302 317
226 228 230 228 232 231 234 211 217 221 226 227 224 230 231 229 227 223 222 217 218 208 210 214 207 209 209 211 215 217 222 225 229 236 241 248 259 265 267 269 277 286 292 297
230 226 229 228 229 234 230 227 215 201 207 218 221 226 228 223 223 225 222 222 222 219 211 213 217 215 211 214 216 226 234 235 238 243 246 251 253 264 276 281 282 283 286 291
230 226 227 229 227 229 228 225 212 200 200 215 213 222 232 226 221 223 226 225 225 220 218 214 219 227 225 219 225 226 229 235 237 240 247 253 261 267 270 279 283 287 283 287
231 227 227 227 224 223 222 223 218 203 209 217 221 219 228 230 224 220 227 231 231 230 225 223 225 223 228 231 232 233 235 238 238 241 245 256 264 271 277 280 282 280 279 279
227 227 226 228 224 223 223 221 215 205 207 216 232 237 230 224 227 227 225 223 226 228 233 232 229 227 227 231 236 238 241 242 243 247 248 251 255 263 272 273 276 277 278 279
227 226 224 226 225 222 220 216 210 205 201 207 211 221 230 228 210 213 226 230 228 229 230 231 232 233 232 232 234 237 240 244 247 251 255 258 259 263 267 270 272 275 276 278
227 228 225 222 226 223 220 215 208 201 199 201 201 214 234 232 223 214 216 226 232 235 236 234 234 237 240 242 242 241 242 243 247 253 257 256 259 263 264 265 267 270 273 276
225 226 225 222 221 223 220 215 209 204 205 203 213 216 231 235 236 225 215 207 220 229 235 240 241 240 240 242 245 247 248 249 249 251 255 259 261 262 264 265 268 270 273 277
223 225 223 222 221 221 219 217 212 207 211 209 211 215 225 235 235 232 221 219 222 231 236 239 242 245 246 246 248 251 253 254 254 255 257 260 262 264 266 269 271 272 274 277
223 223 224 222 222 220 218 219 215 212 213 216 215 217 228 237 240 233 229 222 226 233 232 238 243 244 246 251 255 255 258 261 262 262 261 262 264 267 270 271 272 274 276 278
225 223 223 223 224 218 217 220 219 216 218 219 222 223 227 235 240 239 232 228 221 221 227 236 239 245 253 257 262 266 268 268 268 266 265 266 268 269 271 273 273 275 276 277
225 224 223 224 223 221 220 221 221 221 218 220 220 222 227 228 237 240 236 230 230 228 226 232 240 245 248 250 256 262 266 269 273 275 277 279 277 276 276 278 282 282 280 277
225 224 222 222 222 221 221 224 223 223 224 227 225 223 224 226 226 235 237 235 237 237 236 234 236 240 243 248 256 263 266 271 273 280 281 280 280 282 283 283 283 286 286 283
226 224 223 222 220 219 221 224 225 225 228 228 229 226 224 224 228 232 239 239 237 238 238 238 241 243 249 255 260 263 265 266 272 273 277 283 285 285 285 285 285 289 280 284
228 227 224 222 221 219 221 223 223 224 225 228 228 228 226 226 229 232 236 241 242 241 243 242 241 242 248 255 262 265 266 268 270 273 278 282 282 284 285 284 288 284 260 269
226 228 226 223 220 220 220 222 222 222 226 228 230 229 229 229 229 232 233 238 243 246 249 249 249 251 253 256 259 265 270 269 269 269 276 278 282 282 288 289 283 286 274 278
224 227 227 222 221 219 219 219 222 223 222 225 227 230 232 232 233 234 236 238 242 244 248 251 253 253 255 258 260 262 266 269 269 269 270 276 280 280 283 286 289 278 259 269
223 224 225 223 222 217 217 219 218 222 224 226 227 228 231 235 236 238 238 240 241 244 249 252 254 254 257 259 260 263 266 268 269 270 271 275 279 280 283 280 282 279 281 274
Height
10905 10906 10906 10915 10917 10925 10930 10934 10933 10936 10940 10943 10944 10944 10944 10945 10945 10945 10947 10947 10947 10948 10950 10950 10953 10956 10960 10964 10967 10969 10972 10975 10976 10978 10981 10983 10985 10987 10988 10988 10988 10987 10986 10986
10889 10886 10898 10907 10911 10917 10923 10926 10924 10928 10935 10938 10940 10940 10941 10942 10943 10943 10943 10943 10943 10946 10948 10948 10951 10954 10960 10964 10967 10971 10974 10976 10978 10979 10981 10983 10984 10986 10987 10988 10989 10988 10987 10986
10877 10883 10886 10891 10896 10902 10911 10913 10916 10919 10927 10932 10935 10935 10937 10939 10941 10940 10940 10941 10941 10944 10947 10946 10950 10955 10962 10966 10968 10971 10974 10976 10978 10980 10982 10983 10984 10985 10986 10986 10987 10988 10987 10987
10867 10871 10874 10879 10883 10888 10896 10899 10909 10915 10920 10925 10929 10931 10932 10935 10937 10938 10938 10939 10940 10942 10946 10946 10949 10956 10960 10964 10968 10971 10974 10977 10978 10979 10980 10982 10984 10984 10985 10986 10986 10987 10987 10986
10855 10865 10869 10868 10870 10880 10879 10894 10903 10910 10916 10920 10924 10926 10927 10930 10933 10937 10938 10938 10938 10941 10946 10947 10950 10954 10959 10962 10965 10969 10972 10975 10977 10979 10980 10981 10983 10983 10984 10985 10986 10986 10985 10984
10849 10854 10860 10854 10865 10867 10874 10881 10890 10899 10906 10916 10908 10914 10922 10922 10929 10932 10936 10937 10938 10939 10945 10947 10949 10953 10958 10962 10964 10966 10969 10973 10975 10978 10979 10981 10982 10983 10984 10984 10984 10983 10982 10982
10837 10842 10846 10851 10857 10860 10865 10868 10880 10891 10899 10895 10894 10908 10908 10917 10923 10927 10932 10936 10937 10938 10941 10945 10948 10951 10955 10959 10963 10966 10968 10970 10973 10975 10977 10978 10979 10980 10981 10980 10981 10981 10981 10980
10825 10832 10838 10842 10845 10852 10859 10866 10871 10874 10879 10881 10895 10897 10904 10909 10918 10922 10927 10931 10936 10936 10937 10940 10945 10949 10953 10956 10960 10963 10966 10968 10970 10972 10974 10975 10976 10977 10977 10977 10977 10978 10978 10978
10811 10822 10826 10833 10835 10846 10853 10861 10858 10867 10872 10879 10885 10884 10894 10902 10910 10915 10919 10925 10928 10931 10933 10937 10940 10943 10948 10953 10957 10960 10963 10964 10966 10967 10968 10970 10972 10973 10973 10973 10974 10973 10973 10973
10799 10808 10812 10816 10825 10837 10846 10850 10861 10864 10865 10866 10871 10873 10878 10890 10899 10906 10912 10916 10919 10924 10929 10933 10936 10939 10942 10947 10951 10955 10958 10961 10962 10962 10963 10964 10965 10967 10969 10969 10970 10969 10968 10968
10782 10793 10798 10804 10821 10827 10834 10843 10851 10855 10859 10859 10861 10864 10865 10878 10890 10898 10902 10906 10911 10916 10920 10924 10929 10934 10937 10941 10945 10948 10951 10954 10956 10958 10958 10959 10960 10961 10962 10964 10965 10965 10963 10963
10763 10776 10783 10793 10801 10808 10817 10828 10841 10850 10853 10852 10854 10859 10860 10868 10880 10888 10895 10901 10906 10910 10913 10916 10921 10925 10931 10933 10936 10938 10941 10942 10946 10949 10951 10953 10954 10956 10957 10958 10958 10958 10957 10956
10743 10757 10764 10774 10787 10799 10811 10820 10831 10836 10842 10852 10852 10852 10855 10864 10872 10878 10883 10889 10894 10900 10905 10910 10914 10916 10920 10924 10927 10929 10931 10932 10937 10939 10942 10944 10946 10948 10949 10950 10949 10949 10949 10948
10723 10736 10750 10763 10773 10781 10797 10808 10819 10828 10839 10843 10848 10843 10849 10855 10862 10867 10872 10876 10883 10889 10893 10899 10904 10908 10912 10915 10917 10918 10920 10922 10927 10930 10932 10936 10938 10938 10939 10939 10940 10940 10940 10939
10698 10715 10731 10745 10755 10771 10784 10797 10809 10820 10828 10838 10835 10838 10841 10847 10855 10861 10866 10869 10872 10877 10882 10887 10893 10897 10901 10904 10906 10908 10911 10915 10918 10921 10922 10923 10927 10928 10929 10929 10929 10930 10930 10930
10679 10694 10712 10727 10738 10752 10768 10784 10799 10810 10818 10826 10829 10830 10832 10835 10845 10853 10857 10863 10864 10866 10869 10873 10879 10885 10888 10891 10894 10898 10901 10904 10908 10912 10911 10914 10916 10918 10918 10919 10919 10919 10919 10920
10658 10675 10692 10707 10721 10736 10753 10774 10783 10793 10800 10811 10820 10822 10820 10825 10835 10840 10847 10853 10857 10859 10862 10865 10868 10871 10874 10878 10882 10887 10887 10892 10896 10899 10901 10902 10903 10904 10906 10910 10910 10908 10909 10908
10636 10653 10669 10688 10702 10718 10749 10752 10763 10776 10789 10801 10810 10814 10816 10816 10824 10832 10839 10843 10846 10849 10853 10855 10858 10861 10863 10865 10870 10873 10877 10878 10882 10884 10888 10890 10890 10890 10897 10900 10899 10898 10899 10897
10610 10629 10648 10663 10686 10713 10724 10736 10747 10760 10775 10788 10800 10805 10807 10808 10812 10824 10829 10833 10836 10839 10842 10845 10849 10853 10856 10859 10860 10864 10866 10868 10869 10869 10873 10877 10880 10882 10886 10887 10884 10885 10888 10886
10586 10605 10625 10647 10670 10691 10710 10714 10730 10746 10763 10773 10783 10789 10793 10799 10806 10810 10813 10819 10825 10828 10832 10836 10841 10844 10844 10848 10852 10855 10856 10857 10856 10855 10857 10862 10866 10868 10872 10869 10869 10870 10869 10868
10562 10580 10606 10623 10646 10673 10691 10701 10717 10730 10750 10754 10765 10773 10781 10791 10794 10784 10792 10806 10813 10820 10825 10828 10832 10834 10835 10840 10844 10843 10846 10844 10846 10850 10848 10850 10852 10854 10855 10856 10855 10853 10852 10849
10541 10562 10585 10603 10627 10651 10674 10684 10700 10716 10726 10734 10743 10755 10766 10772 10775 10777 10780 10791 10800 10807 10812 10817 10823 10826 10827 10830 10834 10837 10836 10835 10836 10836 10837 10837 10837 10837 10840 10842 10839 10837 10833 10833
10531 10547 10555 10581 10616 10638 10648 10664 10678 10688 10703 10711 10725 10735 10747 10756 10761 10767 10773 10776 10783 10790 10796 10804 10809 10813 10815 10818 10819 10823 10824 10824 10823 10824 10822 10822 10824 10825 10826 10825 10826 10824 10821 10820
10513 10515 10544 10562 10594 10614 10632 10642 10656 10671 10686 10698 10709 10719 10730 10738 10745 10752 10759 10763 10767 10773 10780 10787 10793 10797 10801 10803 10806 10809 10809 10809 10809 10810 10811 10812 10811 10811 10810 10809 10810 10809 10804 10803
10483 10500 10518 10544 10569 10583 10606 10620 10634 10648 10665 10677 10689 10702 10712 10719 10726 10734 10742 10748 10753 10759 10763 10769 10775 10780 10782 10786 10789 10791 10794 10795 10796 10796 10797 10798 10799 10798 10799 10796 10794 10795 10798 10795
10457 10470 10492 10525 10533 10553 10578 10587 10610 10628 10644 10658 10670 10684 10693 10699 10707 10716 10723 10729 10734 10741 10747 10752 10757 10762 10764 10767 10770 10772 10775 10777 10779 10780 10782 10783 10784 10783 10783 10783 10781 10779 10776 10776